Home   Weather   Langfang   Past weeks
Flag for China

Past Weather in Langfang, Hebei, China — Yesterday and Last 2 Weeks

Now
73 °F

Sunny.


Feels Like: 76 °F
Forecast: 93 / 70 °F
Wind: 1 mph from Northeast

Location: Beijing Airport

Current Time: May 24, 2019 at 7:49:05 am

Latest Report: May 24, 2019 at 7:00 am


Visibility: 10 mi

Pressure: 29.65 "Hg

Humidity: 61%

Dew Point: 59 °F

Location of LangfangLocation

Past Weather in Langfang — Graph

°F

Langfang Temperature Yesterday

Maximum temperature yesterday: 99 °F (at 2:30 pm)
Minimum temperature yesterday: 61 °F (at 4:00 am)
Average temperature yesterday: 81 °F

High & Low Weather Summary for the Past Weeks

 TemperatureHumidityPressure
High99 °F (May 23, 2:30 pm)100% (May 19, 5:30 am)29.98 "Hg (May 19, 5:30 am)
Low43 °F (May 13, 5:00 am)9% (May 9, 2:30 pm)29.47 "Hg (May 22, 4:30 pm)
Average71 °F48%29.73 "Hg
* Reported May 9 6:00 am — May 24 6:30 am, Langfang. Weather by CustomWeather, © 2019

Note: Actual official high and low records may vary slightly from our data, if they occured in-between our weather recording intervals... More about our weather records

Advertising

Langfang Weather History for the Previous 24 Hours

Scroll right to see more
 ConditionsComfort  
Time TempWeatherWind HumidityBarometerVisibility
6:30 am
Fri, May 24
68 °FSunny.3 mph73%29.65 "Hg10 mi
6:00 am68 °FSunny.1 mph73%29.62 "Hg10 mi
5:30 am63 °FSunny.3 mph83%29.62 "Hg10 mi
5:00 am64 °FSunny.1 mph78%29.62 "Hg10 mi
4:30 am64 °FClear.1 mph78%29.62 "Hg10 mi
4:00 am64 °FClear.1 mph83%29.62 "Hg10 mi
3:30 am66 °FClear.1 mph73%29.62 "Hg10 mi
3:00 am68 °FClear.1 mph69%29.62 "Hg10 mi
2:30 am72 °FClear.1 mph61%29.62 "Hg10 mi
2:00 am72 °FClear.1 mph61%29.59 "Hg10 mi
1:30 am68 °FClear.1 mph78%29.62 "Hg10 mi
1:00 am70 °FClear.1 mph73%29.62 "Hg10 mi
12:30 am72 °FClear.1 mph73%29.62 "Hg10 mi
12:00 am72 °FClear.1 mph73%29.62 "Hg10 mi
11:30 pm
Thu, May 23
75 °FClear.1 mph65%29.62 "Hg10 mi
11:00 pm75 °FClear.3 mph69%29.62 "Hg10 mi
10:30 pm73 °FClear.3 mph69%29.62 "Hg10 mi
10:00 pm72 °FClear.1 mph83%29.62 "Hg10 mi
9:30 pm73 °FClear.1 mph78%29.62 "Hg10 mi
9:00 pm75 °FClear.1 mph69%29.62 "Hg10 mi
8:30 pm77 °FClear.3 mph65%29.59 "Hg10 mi
8:00 pm84 °FClear.3 mph48%29.59 "Hg10 mi
7:30 pm86 °FClear.6 mph40%29.59 "Hg10 mi
7:00 pm88 °FPassing clouds.6 mph35%29.56 "HgN/A
6:30 pm95 °FPassing clouds.3 mph25%29.56 "HgN/A
6:00 pm95 °FSunny.6 mph23%29.56 "Hg10 mi
5:30 pm97 °FSunny.6 mph22%29.56 "Hg10 mi
5:00 pm99 °FPassing clouds.8 mph19%29.56 "HgN/A
4:30 pm99 °FPassing clouds.6 mph21%29.56 "HgN/A
4:00 pm99 °FPassing clouds.8 mph21%29.56 "HgN/A
3:30 pm99 °FPassing clouds.8 mph19%29.56 "HgN/A
3:00 pm97 °FPassing clouds.8 mph19%29.56 "HgN/A
2:30 pm99 °FPassing clouds.8 mph19%29.59 "HgN/A
2:00 pm97 °FPassing clouds.8 mph20%29.59 "HgN/A
1:30 pm95 °FPassing clouds.8 mph22%29.59 "HgN/A
1:00 pm95 °FPassing clouds.10 mph23%29.62 "HgN/A
12:30 pm95 °FPassing clouds.6 mph25%29.62 "HgN/A
12:00 pm91 °FPassing clouds.6 mph23%29.65 "HgN/A
11:30 am91 °FPassing clouds.3 mph23%29.65 "HgN/A
11:00 am90 °FSunny.1 mph27%29.65 "Hg10 mi
10:30 am88 °FSunny.1 mph25%29.65 "Hg10 mi
10:00 am84 °FSunny.1 mph31%29.68 "Hg10 mi
9:30 am82 °FSunny.1 mph32%29.68 "Hg10 mi
9:00 am81 °FSunny.1 mph34%29.68 "Hg10 mi
8:30 am81 °FPassing clouds.3 mph37%29.68 "HgN/A
8:00 am79 °FPassing clouds.6 mph37%29.68 "HgN/A
7:30 am77 °FSunny.1 mph42%29.68 "Hg10 mi
7:00 am73 °FSunny.1 mph50%29.65 "Hg10 mi
Weather by CustomWeather, © 2019

See weather overview